2020-058C (46234 NORAD) Tracking and Keplerian Element Data

This shows tracking and keplerian element data for the satellite.

Feedback or suggestion? Click here.




ElementValue
Catalog46234
Name2020-058C
Epoch Orbit1522
Epoch Day336.15163983
Epoch Year2020
RAAN23.6508
Inclination97.4892
Eccentricity0.0014321
Argument of Perigee279.0024
Mean Anonmoly165.2994
Mean Motion15.24017365
Decay Rate2.151E-05
L11 46234U 20058C 20336.15163983 .00002151 00000-0 91589-4 0 9999
L22 46234 97.4892 23.6508 0014321 279.0024 165.2994 15.24017365 15229

Live tracking and technical data element details for 2020-058C (NORAD 46234). 2020-058C can be tracked NOW for your location showing map with azimuth and elevation plus other details from your city location.

Track the satellite on the map from your city or location and see movement details for azimuth, elevation, latitude, longitude, range, height, and movement on the map or in text.







IsCatalogInMostPopularTable: catalog: 46234, numindb: 20
Update: records affected: 1



GetName: 46234 2020-058C

Hit Count: updated at: Thu, 03 Dec 2020 03:03:59 GMT